• In Italy
  • List of Countries
  • For 7 days
  • Water Temperature
  • Satellite Maps
  • Weather Map
  • Weather Widgets
  • user-avatar
    Login

    Hourly Weather Oran

    Today, 20 September, Wednesday

    Time Temperature Precipitation Wind Pressure Humidity
    00:00 +22°C° 0 mm 0 mps 755 mmHg 67%
    01:00 +24°C° 0 mm 1 mps 755 mmHg 68%
    02:00 +24°C° 0 mm 1 mps 754 mmHg 69%
    03:00 +23°C° 0 mm 1 mps 754 mmHg 71%
    04:00 +23°C° 0 mm 2 mps 754 mmHg 71%
    05:00 +23°C° 0 mm 2 mps 754 mmHg 72%
    06:00 +21°C° 0 mm 2 mps 754 mmHg 73%
    07:00 +24°C° 0 mm 2 mps 754 mmHg 62%
    08:00 +26°C° 0 mm 2 mps 754 mmHg 52%
    09:00 +28°C° 0 mm 2 mps 755 mmHg 41%
    10:00 +29°C° 0 mm 2 mps 754 mmHg 34%
    11:00 +31°C° 0 mm 3 mps 754 mmHg 28%
    12:00 +33°C° 0 mm 3 mps 754 mmHg 21%
    13:00 +34°C° 0 mm 4 mps 753 mmHg 20%
    14:00 +34°C° 0 mm 5 mps 753 mmHg 19%
    15:00 +35°C° 0 mm 5 mps 752 mmHg 19%
    16:00 +34°C° 0 mm 6 mps 752 mmHg 23%
    17:00 +32°C° 0 mm 6 mps 752 mmHg 27%
    18:00 +30°C° 0 mm 6 mps 752 mmHg 31%
    19:00 +29°C° 0 mm 5 mps 752 mmHg 34%
    20:00 +29°C° 0 mm 5 mps 752 mmHg 36%
    21:00 +28°C° 0 mm 4 mps 753 mmHg 38%
    22:00 +28°C° 0 mm 4 mps 752 mmHg 39%
    23:00 +27°C° 0 mm 3 mps 752 mmHg 39%

    Tomorrow, 21 September, Thursday

    Time Temperature Precipitation Wind Pressure Humidity
    00:00 +26°C° 0 mm 3 mps 752 mmHg 40%
    01:00 +26°C° 0 mm 2 mps 752 mmHg 40%
    02:00 +25°C° 0 mm 2 mps 751 mmHg 40%
    03:00 +25°C° 0 mm 2 mps 751 mmHg 41%
    04:00 +25°C° 0 mm 2 mps 751 mmHg 42%
    05:00 +24°C° 0 mm 2 mps 751 mmHg 43%
    06:00 +24°C° 0 mm 2 mps 751 mmHg 45%
    07:00 +26°C° 0 mm 2 mps 751 mmHg 40%
    08:00 +28°C° 0 mm 2 mps 751 mmHg 35%
    09:00 +30°C° 0 mm 2 mps 752 mmHg 30%
    10:00 +31°C° 0 mm 2 mps 751 mmHg 29%
    11:00 +33°C° 0 mm 3 mps 751 mmHg 27%
    12:00 +34°C° 0 mm 3 mps 751 mmHg 25%
    13:00 +34°C° 0 mm 4 mps 751 mmHg 27%
    14:00 +34°C° 0 mm 4 mps 750 mmHg 28%
    15:00 +34°C° 0 mm 4 mps 750 mmHg 29%
    16:00 +33°C° 0 mm 4 mps 750 mmHg 33%
    17:00 +31°C° 0 mm 3 mps 750 mmHg 36%
    18:00 +30°C° 0 mm 2 mps 750 mmHg 39%
    19:00 +29°C° 0 mm 2 mps 750 mmHg 42%
    20:00 +29°C° 0 mm 1 mps 751 mmHg 45%
    21:00 +28°C° 0 mm 1 mps 752 mmHg 47%
    22:00 +28°C° 0 mm 1 mps 751 mmHg 50%
    23:00 +27°C° 0 mm 1 mps 751 mmHg 53%

    Day after tomorrow, 22 September, Friday

    Time Temperature Precipitation Wind Pressure Humidity
    00:00 +27°C° 0 mm 1 mps 751 mmHg 56%
    01:00 +26°C° 0 mm 1 mps 751 mmHg 59%
    02:00 +26°C° 0 mm 1 mps 751 mmHg 62%
    03:00 +25°C° 0 mm 1 mps 751 mmHg 65%
    04:00 +25°C° 0 mm 1 mps 751 mmHg 67%
    05:00 +25°C° 0 mm 1 mps 751 mmHg 68%
    06:00 +24°C° 0 mm 1 mps 751 mmHg 70%
    07:00 +26°C° 0 mm 1 mps 751 mmHg 64%
    08:00 +27°C° 0 mm 1 mps 752 mmHg 58%
    09:00 +28°C° 0 mm 1 mps 752 mmHg 52%
    10:00 +29°C° 0 mm 2 mps 752 mmHg 47%
    11:00 +31°C° 0 mm 2 mps 752 mmHg 42%
    12:00 +33°C° 0 mm 3 mps 752 mmHg 36%
    13:00 +33°C° 0 mm 3 mps 752 mmHg 37%
    14:00 +34°C° 0 mm 4 mps 751 mmHg 37%
    15:00 +34°C° 0 mm 5 mps 751 mmHg 38%
    16:00 +33°C° 0 mm 5 mps 751 mmHg 43%
    17:00 +32°C° 0 mm 5 mps 751 mmHg 48%
    18:00 +30°C° 0 mm 5 mps 751 mmHg 53%
    19:00 +29°C° 0 mm 4 mps 752 mmHg 56%
    20:00 +28°C° 0 mm 4 mps 752 mmHg 59%
    21:00 +28°C° 0 mm 3 mps 753 mmHg 62%
    22:00 +27°C° 0 mm 3 mps 752 mmHg 65%
    23:00 +27°C° 0 mm 3 mps 752 mmHg 68%

    23 September, Saturday

    Time Temperature Precipitation Wind Pressure Humidity
    00:00 +27°C° 0 mm 3 mps 752 mmHg 71%
    01:00 +26°C° 0 mm 3 mps 752 mmHg 74%
    02:00 +26°C° 0 mm 3 mps 752 mmHg 77%
    03:00 +25°C° 0 mm 2 mps 752 mmHg 80%
    04:00 +25°C° 0 mm 2 mps 752 mmHg 82%
    05:00 +25°C° 0 mm 2 mps 752 mmHg 83%
    06:00 +24°C° 0 mm 2 mps 753 mmHg 84%
    07:00 +26°C° 0 mm 2 mps 753 mmHg 76%
    08:00 +27°C° 0 mm 2 mps 753 mmHg 68%
    09:00 +28°C° 0 mm 2 mps 754 mmHg 60%
    10:00 +29°C° 0 mm 3 mps 753 mmHg 55%
    11:00 +31°C° 0 mm 3 mps 753 mmHg 50%
    12:00 +33°C° 0 mm 4 mps 753 mmHg 46%
    13:00 +33°C° 0 mm 4 mps 753 mmHg 48%
    14:00 +32°C° 0 mm 5 mps 753 mmHg 50%
    15:00 +32°C° 0 mm 5 mps 752 mmHg 52%
    16:00 +30°C° 0 mm 5 mps 752 mmHg 56%
    17:00 +29°C° 0 mm 5 mps 753 mmHg 61%
    18:00 +28°C° 0 mm 4 mps 753 mmHg 65%
    19:00 +28°C° 0 mm 4 mps 754 mmHg 68%
    20:00 +27°C° 0 mm 4 mps 754 mmHg 71%
    21:00 +27°C° 0 mm 3 mps 754 mmHg 75%
    22:00 +26°C° 0 mm 3 mps 754 mmHg 77%
    23:00 +26°C° 0 mm 3 mps 754 mmHg 80%

    24 September, Sunday

    Time Temperature Precipitation Wind Pressure Humidity
    00:00 +26°C° 0 mm 3 mps 754 mmHg 82%
    01:00 +25°C° 0 mm 3 mps 754 mmHg 84%
    02:00 +25°C° 0 mm 3 mps 754 mmHg 86%
    03:00 +24°C° 0 mm 3 mps 754 mmHg 88%
    04:00 +24°C° 0 mm 3 mps 754 mmHg 88%
    05:00 +24°C° 0 mm 3 mps 754 mmHg 88%
    06:00 +24°C° 0 mm 3 mps 755 mmHg 88%
    07:00 +25°C° 0 mm 3 mps 755 mmHg 79%
    08:00 +26°C° 0 mm 3 mps 755 mmHg 71%
    09:00 +27°C° 0 mm 3 mps 755 mmHg 63%
    10:00 +29°C° 0 mm 4 mps 755 mmHg 56%
    11:00 +30°C° 0 mm 4 mps 755 mmHg 49%
    12:00 +33°C° 0 mm 5 mps 755 mmHg 42%
    13:00 +33°C° 0 mm 6 mps 755 mmHg 41%
    14:00 +33°C° 0 mm 6 mps 754 mmHg 40%
    15:00 +34°C° 0 mm 7 mps 754 mmHg 40%
    16:00 +33°C° 0 mm 6 mps 754 mmHg 44%
    17:00 +30°C° 0 mm 6 mps 754 mmHg 49%
    18:00 +29°C° 0 mm 6 mps 754 mmHg 53%
    19:00 +29°C° 0 mm 5 mps 755 mmHg 56%
    20:00 +28°C° 0 mm 5 mps 755 mmHg 60%
    21:00 +27°C° 0 mm 4 mps 755 mmHg 63%
    22:00 +27°C° 0 mm 4 mps 755 mmHg 65%
    23:00 +27°C° 0 mm 3 mps 755 mmHg 68%

    25 September, Monday

    Time Temperature Precipitation Wind Pressure Humidity
    00:00 +26°C° 0 mm 3 mps 755 mmHg 70%
    01:00 +26°C° 0 mm 3 mps 755 mmHg 72%
    02:00 +25°C° 0 mm 3 mps 754 mmHg 75%
    03:00 +25°C° 0 mm 3 mps 754 mmHg 77%
    04:00 +24°C° 0 mm 3 mps 754 mmHg 79%
    05:00 +24°C° 0 mm 2 mps 754 mmHg 81%
    06:00 +23°C° 0 mm 2 mps 754 mmHg 82%
    07:00 +25°C° 0 mm 2 mps 755 mmHg 74%
    08:00 +26°C° 0 mm 2 mps 755 mmHg 66%
    09:00 +28°C° 0 mm 2 mps 755 mmHg 58%
    10:00 +29°C° 0 mm 2 mps 755 mmHg 51%
    11:00 +30°C° 0 mm 3 mps 755 mmHg 44%
    12:00 +33°C° 0 mm 4 mps 754 mmHg 37%
    13:00 +33°C° 0 mm 4 mps 754 mmHg 36%
    14:00 +33°C° 0 mm 4 mps 754 mmHg 34%
    15:00 +33°C° 0 mm 4 mps 753 mmHg 33%
    16:00 +32°C° 0 mm 4 mps 753 mmHg 36%
    17:00 +32°C° 0 mm 4 mps 754 mmHg 39%
    18:00 +30°C° 0 mm 3 mps 754 mmHg 42%
    19:00 +29°C° 0 mm 3 mps 754 mmHg 45%
    20:00 +28°C° 0 mm 2 mps 754 mmHg 49%
    21:00 +27°C° 0 mm 2 mps 754 mmHg 52%
    22:00 +27°C° 0 mm 1 mps 754 mmHg 54%
    23:00 +26°C° 0 mm 1 mps 754 mmHg 56%
    Show more